Погода в Дубровнике

Хорватия     42°39′01″N   18°05′20″E
темп.,
°C
ветер,
м/с
пор.,
м/с
влажн.,
%
обл.,
%
осадки,
мм/ч
давл.,
гПа
погр.,
м
17 августа, ср
ср1723:00+21всв11710 0.0 101425
02:00+20ссв22700 0.0 101431
05:00+20ссв22690 0.0 101330
08:00+23ссв11580 0.0 1014102
11:00+26зюз33490 0.0 1014782
14:00+27зюз55530 0.0 1014997
17:00+27з45530 0.0 1013621
20:00+24зсз22640 0.0 101326
18 августа, чт
чт1823:00+23св22600 0.0 101316
02:00+23св22580 0.0 101319
05:00+22св11610 0.0 101314
08:00+25св11520 0.0 101374
11:00+29ююв32440 0.0 1013478
14:00+29ю22460 0.0 1012573
17:00+29зюз11440 0.0 1011450
20:00+27св22460 0.0 101011
19 августа, пт
пт1923:00+26св12500 0.1 101111
02:00+25всв33480 0.1 101017
05:00+25св33451 0.0 100917
08:00+29в234040 0.0 100996
11:00+30ююв584098 0.0 1010582
14:00+28ю3750100 0.0 1011426
17:00+29юв344791 0.1 1009341
20:00+25ссз11598 1.6 100912
20 августа, сб
сб2023:00+24юв11640 0.9 101011
02:00+22св226996 1.0 101021
05:00+21всв33733 0.1 101048
08:00+23в2365100 0.1 1011221
11:00+26ююв335746 0.0 1011704
14:00+26ю436228 0.0 1011757
17:00+25з33688 0.0 1010653
20:00+23сз22770 0.1 101036
21 августа, вс
вс2123:00+22ссв22760 0.0 101021
02:00+21св22705 0.0 101149
05:00+21ссв33705 0.0 101051
08:00+23св23620 0.0 1010176
11:00+27з22480 0.0 1010995
14:00+28зюз344833 0.0 10081310
17:00+29ссв45418 0.0 10071237
20:00+24ссв44510 0.0 100752